Weather Roundup
Issued by NWS

Home | Current Version | Previous Version | Graphics & Text | Print | Product List | Glossary Off
Versions: 1 2 3 4 5 6 7 8 9 10 11 12 13 14 15 16 17 18 19 20 21 22 23 24 25 26 27 28 29 30 31 32 33 34 35 36 37 38 39 40 41 42 43 44 45 46 47 48 49 50

000
NZUS93 KARX 211159
HRRWXR

CURRENT HOURLY OBSERVATIONS ACROSS
MUCH OF THE UPPER MISSISSIPPI VALLEY
NATIONAL WEATHER SERVICE LA CROSSE WI
700 AM CDT MON APR 21 2014


...SOUTHEAST MINNESOTA...


CITY           SKY/WX    TMP DP  RH WIND       PRES   REMARKS
ROCHESTER      LGT RAIN  55  52  89 NW12      29.96R
ROCHESTER/MAYO CLOUDY    55  54  94 W6        29.95S
WINONA           N/A    N/A N/A N/A MISG        N/A
AUSTIN         CLOUDY    57  55  94 N3        29.96R
ALBERT LEA     RAIN      57  55  94 E3        29.94F
DODGE CENTER   RAIN      57  55  94 N3        29.95F
PRESTON        CLOUDY    57  54  88 NW10      29.95R
OWATONNA       RAIN      55  54  94 S3        29.97R
FARIBAULT      LGT RAIN  57  54  88 S8        29.94F
$$

...ELSEWHERE IN MINNESOTA...


CITY           SKY/WX    TMP DP  RH WIND       PRES   REMARKS
MINNEAPOLIS    CLOUDY    57  55  93 NW12      29.92R
INTNL FALLS    PTCLDY    46  34  62 W8        29.82S
DULUTH         PTCLDY    42  29  59 CALM      29.87F
RED WING       RAIN      57  54  88 SW5       29.89S
REDWOOD FALLS  PTCLDY    55  51  86 NW10      29.94R
MANKATO        CLOUDY    57  54  88 SE15      29.92F
WORTHINGTON    CLOUDY    54  46  76 N8        29.98R
FAIRMONT       CLOUDY    57  54  88 W16       29.95R
$$

...SOUTHWEST WISCONSIN...


CITY           SKY/WX    TMP DP  RH WIND       PRES   REMARKS
LA CROSSE      LGT RAIN  54  53  97 S5        29.91S FOG
PRAIRIE DU CHI CLOUDY    52  51  97 CALM      29.91F FOG
BOSCOBEL       CLOUDY    55  53  93 CALM      29.92S FOG
LONE ROCK      NOT AVBL
PLATTEVILLE    CLOUDY    55  50  83 CALM      29.93R
FORT MC COY    NOT AVBL
CAMP DOUGLAS   CLOUDY    54  54 100 S7        29.91R
VIROQUA        PTSUNNY   54  54 100 CALM      29.93S
WIS DELLS      CLOUDY    52  51  94 S7        29.91S FOG
$$

...ELSEWHERE IN WISCONSIN...


CITY           SKY/WX    TMP DP  RH WIND       PRES   REMARKS
MILWAUKEE      CLOUDY    61  47  59 S8        29.92F
MADISON        MOCLDY    54  50  86 CALM      29.92F
GREEN BAY      FOG       48  48 100 S6        29.92S VSB 1/2
EAU CLAIRE     CLOUDY    51  51 100 NW6       29.89R FOG
BLACK RVR FLS  FOG       50  50 100 CALM      29.90F VSB<1/4
MEDFORD        FOG       49  49 100 CALM      29.90F VSB<1/4
WAUSAU         FOG       49  49 100 CALM      29.89F VSB<1/4
WIS RAPIDS     CLOUDY    52  51  97 SW3       29.92R FOG
MARSHFIELD     FOG       50  49  96 CALM      29.90F VSB<1/4
RICE LAKE      FOG       51  50  95 SE3       29.90S VSB 1/4
$$

...NORTHEAST IOWA...


CITY           SKY/WX    TMP DP  RH WIND       PRES   REMARKS
WATERLOO       CLOUDY    53  53 100 MISG      29.92F FOG
DUBUQUE        CLOUDY    57  48  72 W5        29.92R
DECORAH        CLOUDY    55  55 100 S5        29.91S
MASON CITY     CLOUDY    57  56  96 NW8       29.92F
CHARLES CITY   CLOUDY    54  54 100 S6        29.92F FOG
OELWEIN        CLOUDY   N/A N/A N/A CALM      29.93F FOG
$$

...ELSEWHERE IN IOWA...


CITY           SKY/WX    TMP DP  RH WIND       PRES   REMARKS
DES MOINES     MOCLDY    60  54  80 S7        29.94F
IOWA CITY      LGT RAIN  62  58  86 W8        29.94F
FORT DODGE     CLOUDY    57  55  94 CALM      29.94F
MARSHALLTOWN   CLOUDY    56  54  93 S6        29.93S
CEDAR RAPIDS   LGT RAIN  60  57  89 SW12      29.93S FOG
$$

...NORTHERN ILLINOIS...


CITY           SKY/WX    TMP DP  RH WIND       PRES   REMARKS
CHICAGO-OHARE  MOCLDY    59  42  53 S6        29.95F
DUPAGE         PTCLDY    53  44  71 SE6       29.95F
CHICAGO-MIDWAY MOCLDY    61  42  49 S8        29.96F
MOLINE         CLOUDY    60  46  59 CALM      29.93S
ROCKFORD       CLOUDY    57  44  62 S6        29.94F
STERLING       MOCLDY    54  46  76 CALM      29.94S
PEORIA         CLOUDY    59  47  64 SW3       29.97F
$$

NOTE: "FAIR" INDICATES FEW OR NO CLOUDS BELOW 12,000 FEET WITH NO
SIGNIFICANT WEATHER AND/OR OBSTRUCTIONS TO VISIBILITY. WIND
SPEEDS ARE IN MILES-PER-HOUR.



USA.gov is the U.S. government's official web portal to all federal, state and local government web resources and services.